| time (UTC) | temp C | wind direction | speed KPH | gust KPH | rain 1hr cm | rain 24hr cm | rain mn cm | humidity % | barometer mb |
| 20260510204350 | 15 | 252 | 4.8 | 4.8 | 0.00 | 0.03 | 0.03 | 45 | 1358.1 |
| 20260510203847 | 15 | 112 | 8.0 | 14.5 | 0.00 | 0.03 | 0.03 | 44 | 1357.7 |
| 20260510203345 | 15 | 155 | 17.7 | 29.0 | 0.00 | 0.03 | 0.03 | 45 | 1357.7 |
| 20260510202839 | 15 | 113 | 8.0 | 40.2 | 0.00 | 0.03 | 0.03 | 45 | 1357.6 |
| 20260510202335 | 15 | 27 | 12.9 | 40.2 | 0.00 | 0.03 | 0.03 | 44 | 1357.4 |
| 20260510201832 | 16 | 108 | 9.7 | 37.0 | 0.00 | 0.03 | 0.03 | 44 | 1357.3 |
| 20260510201329 | 16 | 86 | 14.5 | 53.1 | 0.00 | 0.03 | 0.03 | 44 | 1357.2 |
| 20260510200826 | 15 | 317 | 9.7 | 32.2 | 0.00 | 0.03 | 0.03 | 48 | 1357.2 |
| 20260510200324 | 13 | 349 | 6.4 | 25.7 | 0.00 | 0.03 | 0.03 | 51 | 1357.2 |
| 20260510195819 | 13 | 113 | 8.0 | 25.7 | 0.13 | 0.03 | 0.03 | 59 | 1357.1 |
| 20260510195316 | 13 | 343 | 9.7 | 25.7 | 0.05 | 0.00 | 0.00 | 55 | 1357.3 |
| 20260510194811 | 15 | 212 | 3.2 | 17.7 | 0.00 | 0.00 | 0.00 | 50 | 1357.4 |
| 20260510194308 | 15 | 16 | 29.0 | 37.0 | 0.00 | 0.00 | 0.00 | 43 | 1357.3 |
| 20260510193803 | 16 | 344 | 3.2 | 20.9 | 0.00 | 0.00 | 0.00 | 39 | 1357.1 |
| 20260510193258 | 16 | 61 | 8.0 | 45.1 | 0.00 | 0.00 | 0.00 | 39 | 1357.1 |
| 20260510192754 | 17 | 32 | 16.1 | 48.3 | 0.00 | 0.00 | 0.00 | 36 | 1356.9 |
| 20260510192250 | 18 | 294 | 16.1 | 27.4 | 0.00 | 0.00 | 0.00 | 36 | 1356.9 |
| 20260510191746 | 18 | 52 | 0.0 | 43.5 | 0.00 | 0.00 | 0.00 | 35 | 1356.8 |
| 20260510191242 | 18 | 82 | 4.8 | 22.5 | 0.00 | 0.00 | 0.00 | 34 | 1356.8 |
| 20260510190741 | 17 | 247 | 8.0 | 25.7 | 0.00 | 0.00 | 0.00 | 36 | 1356.9 |
| 20260510190237 | 17 | 169 | 8.0 | 32.2 | 0.00 | 0.00 | 0.00 | 34 | 1357.1 |
| 20260510185733 | 18 | 186 | 6.4 | 29.0 | 0.00 | 0.00 | 0.00 | 33 | 1356.7 |
| 20260510185232 | 18 | 176 | 6.4 | 20.9 | 0.00 | 0.00 | 0.00 | 33 | 1356.9 |
| 20260510184728 | 18 | 270 | 8.0 | 41.8 | 0.00 | 0.00 | 0.00 | 34 | 1356.8 |
| 20260510184225 | 18 | 194 | 4.8 | 19.3 | 0.00 | 0.00 | 0.00 | 33 | 1356.8 |
| 20260510183720 | 17 | 18 | 11.3 | 29.0 | 0.00 | 0.00 | 0.00 | 35 | 1356.8 |
| 20260510183215 | 17 | 153 | 14.5 | 30.6 | 0.00 | 0.00 | 0.00 | 35 | 1356.6 |
| 20260510182712 | 17 | 263 | 4.8 | 24.1 | 0.00 | 0.00 | 0.00 | 34 | 1356.7 |
| 20260510182207 | 17 | 190 | 4.8 | 37.0 | 0.00 | 0.00 | 0.00 | 34 | 1356.8 |
| 20260510181704 | 17 | 179 | 24.1 | 32.2 | 0.00 | 0.00 | 0.00 | 35 | 1356.7 |
| 20260510181201 | 18 | 66 | 3.2 | 29.0 | 0.00 | 0.00 | 0.00 | 35 | 1356.6 |
| 20260510180657 | 17 | 12 | 14.5 | 29.0 | 0.00 | 0.00 | 0.00 | 36 | 1356.8 |
| 20260510180155 | 17 | 255 | 3.2 | 35.4 | 0.00 | 0.00 | 0.00 | 35 | 1356.9 |
| 20260510175650 | 18 | 23 | 9.7 | 29.0 | 0.00 | 0.00 | 0.00 | 34 | 1356.6 |
| 20260510175147 | 16 | 23 | 14.5 | 24.1 | 0.00 | 0.00 | 0.00 | 37 | 1356.4 |
| 20260510174644 | 17 | 233 | 3.2 | 30.6 | 0.00 | 0.00 | 0.00 | 35 | 1356.9 |
| 20260510174142 | 17 | 31 | 9.7 | 45.1 | 0.00 | 0.00 | 0.00 | 36 | 1357.2 |
| 20260510173637 | 17 | 317 | 8.0 | 29.0 | 0.00 | 0.00 | 0.00 | 35 | 1356.9 |
| 20260510173134 | 17 | 195 | 4.8 | 24.1 | 0.00 | 0.00 | 0.00 | 35 | 1357.2 |
| 20260510172629 | 16 | 354 | 6.4 | 35.4 | 0.00 | 0.00 | 0.00 | 37 | 1356.9 |
| 20260510172126 | 18 | 164 | 9.7 | 17.7 | 0.00 | 0.00 | 0.00 | 33 | 1356.9 |
| 20260510171622 | 17 | 315 | 3.2 | 20.9 | 0.00 | 0.00 | 0.00 | 34 | 1356.9 |
| 20260510171120 | 17 | 220 | 14.5 | 30.6 | 0.00 | 0.00 | 0.00 | 35 | 1356.8 |
| 20260510170616 | 16 | 123 | 11.3 | 25.7 | 0.00 | 0.00 | 0.00 | 36 | 1357.2 |
| 20260510170113 | 16 | 153 | 4.8 | 14.5 | 0.00 | 0.00 | 0.00 | 36 | 1356.9 |
| 20260510165608 | 16 | 71 | 4.8 | 25.7 | 0.00 | 0.00 | 0.00 | 37 | 1356.8 |
| 20260510165104 | 16 | 220 | 4.8 | 17.7 | 0.00 | 0.00 | 0.00 | 37 | 1357.1 |
| 20260510164602 | 15 | 119 | 6.4 | 32.2 | 0.00 | 0.00 | 0.00 | 39 | 1357.1 |
| 20260510164058 | 15 | 43 | 11.3 | 38.6 | 0.00 | 0.00 | 0.00 | 39 | 1356.8 |
| 20260510163554 | 15 | 214 | 17.7 | 32.2 | 0.00 | 0.00 | 0.00 | 40 | 1356.6 |
| 20260510163051 | 15 | 342 | 8.0 | 17.7 | 0.00 | 0.00 | 0.00 | 41 | 1356.6 |
| 20260510162545 | 15 | 101 | 16.1 | 24.1 | 0.00 | 0.00 | 0.00 | 41 | 1356.6 |
| 20260510162042 | 15 | 351 | 16.1 | 27.4 | 0.00 | 0.00 | 0.00 | 42 | 1356.9 |
| 20260510161538 | 15 | 131 | 4.8 | 30.6 | 0.00 | 0.00 | 0.00 | 42 | 1356.7 |
| 20260510161035 | 15 | 80 | 0.0 | 22.5 | 0.00 | 0.00 | 0.00 | 42 | 1356.6 |
| 20260510160532 | 15 | 165 | 8.0 | 20.9 | 0.00 | 0.00 | 0.00 | 43 | 1356.6 |
| 20260510160031 | 14 | 191 | 0.0 | 32.2 | 0.00 | 0.00 | 0.00 | 42 | 1356.7 |
| 20260510155528 | 13 | 126 | 14.5 | 27.4 | 0.00 | 0.00 | 0.00 | 45 | 1356.6 |
| 20260510155025 | 13 | 130 | 9.7 | 33.8 | 0.00 | 0.00 | 0.00 | 45 | 1356.6 |
| 20260510154520 | 13 | 201 | 0.0 | 27.4 | 0.00 | 0.00 | 0.00 | 46 | 1356.6 |
| 20260510154015 | 13 | 180 | 3.2 | 40.2 | 0.00 | 0.00 | 0.00 | 47 | 1356.4 |
| 20260510153510 | 13 | 63 | 4.8 | 27.4 | 0.00 | 0.00 | 0.00 | 47 | 1356.4 |
| 20260510153007 | 13 | 355 | 6.4 | 17.7 | 0.00 | 0.00 | 0.00 | 47 | 1356.4 |
| 20260510152504 | 13 | 131 | 0.0 | 14.5 | 0.00 | 0.00 | 0.00 | 47 | 1356.6 |
| 20260510152001 | 13 | 87 | 11.3 | 17.7 | 0.00 | 0.00 | 0.00 | 47 | 1356.2 |
| 20260510151458 | 13 | 113 | 17.7 | 37.0 | 0.00 | 0.00 | 0.00 | 48 | 1356.4 |
| 20260510150955 | 13 | 165 | 4.8 | 24.1 | 0.00 | 0.00 | 0.00 | 46 | 1356.2 |
| 20260510150450 | 13 | 17 | 11.3 | 20.9 | 0.00 | 0.00 | 0.00 | 43 | 1356.1 |
| 20260510145946 | 15 | 261 | 4.8 | 17.7 | 0.00 | 0.00 | 0.00 | 38 | 1355.9 |
| 20260510145442 | 13 | 217 | 8.0 | 17.7 | 0.00 | 0.00 | 0.00 | 40 | 1355.9 |
| 20260510144939 | 14 | 28 | 14.5 | 14.5 | 0.00 | 0.00 | 0.00 | 38 | 1355.9 |
| 20260510144436 | 13 | 339 | 4.8 | 16.1 | 0.00 | 0.00 | 0.00 | 39 | 1355.9 |
| 20260510143931 | 14 | 128 | 3.2 | 14.5 | 0.00 | 0.00 | 0.00 | 39 | 1355.9 |
| 20260510143427 | 13 | 297 | 4.8 | 9.7 | 0.00 | 0.00 | 0.00 | 39 | 1355.8 |
| 20260510142925 | 14 | 195 | 3.2 | 14.5 | 0.00 | 0.00 | 0.00 | 38 | 1355.9 |
| 20260510142421 | 14 | 66 | 1.6 | 4.8 | 0.00 | 0.00 | 0.00 | 37 | 1356.1 |
| 20260510141918 | 13 | 42 | 9.7 | 14.5 | 0.00 | 0.00 | 0.00 | 40 | 1355.7 |
| 20260510141415 | 12 | 9 | 16.1 | 16.1 | 0.00 | 0.00 | 0.00 | 42 | 1355.8 |
| 20260510140912 | 12 | 86 | 11.3 | 20.9 | 0.00 | 0.00 | 0.00 | 41 | 1355.6 |
| 20260510140408 | 12 | 32 | 4.8 | 16.1 | 0.00 | 0.00 | 0.00 | 41 | 1355.8 |
| 20260510135907 | 11 | 33 | 12.9 | 24.1 | 0.00 | 0.00 | 0.00 | 43 | 1355.6 |
| 20260510135403 | 11 | 32 | 4.8 | 14.5 | 0.00 | 0.00 | 0.00 | 43 | 1355.7 |
| 20260510134901 | 11 | 29 | 16.1 | 25.7 | 0.00 | 0.00 | 0.00 | 44 | 1355.6 |
| 20260510134357 | 11 | 94 | 4.8 | 12.9 | 0.00 | 0.00 | 0.00 | 44 | 1355.4 |
| 20260510133854 | 11 | 352 | 0.0 | 11.3 | 0.00 | 0.00 | 0.00 | 44 | 1355.3 |
| 20260510133350 | 11 | 90 | 8.0 | 17.7 | 0.00 | 0.00 | 0.00 | 44 | 1355.1 |
| 20260510132845 | 11 | 86 | 3.2 | 11.3 | 0.00 | 0.00 | 0.00 | 43 | 1355.2 |
| 20260510132344 | 11 | 86 | 8.0 | 24.1 | 0.00 | 0.00 | 0.00 | 43 | 1355.3 |
| 20260510131840 | 11 | 107 | 4.8 | 17.7 | 0.00 | 0.00 | 0.00 | 43 | 1355.4 |
| 20260510131338 | 11 | 106 | 8.0 | 8.0 | 0.00 | 0.00 | 0.00 | 43 | 1355.1 |
| 20260510130834 | 11 | 237 | 1.6 | 3.2 | 0.00 | 0.00 | 0.00 | 42 | 1354.9 |
| 20260510130331 | 11 | 276 | 3.2 | 4.8 | 0.00 | 0.00 | 0.00 | 41 | 1354.7 |
| 20260510125828 | 11 | 123 | 6.4 | 11.3 | 0.00 | 0.00 | 0.00 | 41 | 1354.8 |
| 20260510125324 | 11 | 90 | 4.8 | 11.3 | 0.00 | 0.00 | 0.00 | 41 | 1354.8 |
| 20260510124821 | 11 | 37 | 6.4 | 11.3 | 0.00 | 0.00 | 0.00 | 41 | 1354.7 |
| 20260510124318 | 11 | 71 | 4.8 | 11.3 | 0.00 | 0.00 | 0.00 | 40 | 1354.4 |
| 20260510123813 | 11 | 70 | 8.0 | 14.5 | 0.00 | 0.00 | 0.00 | 40 | 1354.3 |
| 20260510123309 | 11 | 92 | 8.0 | 14.5 | 0.00 | 0.00 | 0.00 | 40 | 1354.7 |
| 20260510122806 | 11 | 56 | 6.4 | 9.7 | 0.00 | 0.00 | 0.00 | 40 | 1354.4 |
| 20260510122305 | 11 | 62 | 9.7 | 17.7 | 0.00 | 0.00 | 0.00 | 40 | 1354.3 |
| 20260510121758 | 11 | 104 | 11.3 | 19.3 | 0.00 | 0.00 | 0.00 | 40 | 1354.2 |
| 20260510121256 | 11 | 88 | 6.4 | 16.1 | 0.00 | 0.00 | 0.00 | 39 | 1354.6 |
| 20260510120753 | 11 | 25 | 6.4 | 17.7 | 0.00 | 0.00 | 0.00 | 39 | 1354.6 |
| 20260510120249 | 11 | 90 | 3.2 | 12.9 | 0.00 | 0.00 | 0.00 | 39 | 1354.3 |
| 20260510115745 | 11 | 106 | 12.9 | 12.9 | 0.00 | 0.00 | 0.00 | 38 | 1354.6 |
| 20260510115244 | 12 | 80 | 4.8 | 20.9 | 0.00 | 0.00 | 0.00 | 38 | 1354.3 |
| 20260510114738 | 11 | 285 | 0.0 | 8.0 | 0.00 | 0.00 | 0.00 | 38 | 1354.4 |
| 20260510114236 | 11 | 100 | 9.7 | 14.5 | 0.00 | 0.00 | 0.00 | 38 | 1354.4 |
| 20260510113731 | 11 | 119 | 6.4 | 9.7 | 0.00 | 0.00 | 0.00 | 38 | 1354.6 |
| 20260510113229 | 11 | 30 | 6.4 | 9.7 | 0.00 | 0.00 | 0.00 | 37 | 1354.6 |
| 20260510112725 | 12 | 171 | 8.0 | 14.5 | 0.00 | 0.00 | 0.00 | 37 | 1354.7 |
| 20260510112222 | 12 | 130 | 8.0 | 22.5 | 0.00 | 0.00 | 0.00 | 37 | 1354.4 |
| 20260510111717 | 12 | 124 | 6.4 | 14.5 | 0.00 | 0.00 | 0.00 | 38 | 1355.1 |
| 20260510111214 | 12 | 71 | 12.9 | 27.4 | 0.00 | 0.00 | 0.00 | 37 | 1354.6 |
| 20260510110709 | 12 | 124 | 4.8 | 9.7 | 0.00 | 0.00 | 0.00 | 33 | 1354.8 |
| 20260510110207 | 12 | 99 | 16.1 | 17.7 | 0.00 | 0.00 | 0.00 | 33 | 1354.7 |
| 20260510105706 | 12 | 43 | 8.0 | 17.7 | 0.00 | 0.00 | 0.00 | 33 | 1354.4 |
| 20260510105206 | 12 | 73 | 4.8 | 8.0 | 0.00 | 0.00 | 0.00 | 33 | 1354.4 |
| 20260510104704 | 12 | 71 | 8.0 | 12.9 | 0.00 | 0.00 | 0.00 | 33 | 1354.4 |
| 20260510104201 | 12 | 41 | 11.3 | 11.3 | 0.00 | 0.00 | 0.00 | 33 | 1354.3 |
| 20260510103657 | 13 | 186 | 0.0 | 6.4 | 0.00 | 0.00 | 0.00 | 32 | 1354.2 |
| 20260510103154 | 13 | 95 | 0.0 | 6.4 | 0.00 | 0.00 | 0.00 | 32 | 1354.2 |
| 20260510102654 | 13 | 24 | 6.4 | 14.5 | 0.00 | 0.00 | 0.00 | 32 | 1353.9 |
| 20260510102150 | 13 | 51 | 16.1 | 30.6 | 0.00 | 0.00 | 0.00 | 32 | 1353.9 |
| 20260510101648 | 13 | 180 | 8.0 | 27.4 | 0.00 | 0.00 | 0.00 | 31 | 1353.6 |
| 20260510101146 | 13 | 106 | 8.0 | 22.5 | 0.00 | 0.00 | 0.00 | 31 | 1353.6 |
| 20260510100642 | 13 | 98 | 8.0 | 24.1 | 0.00 | 0.00 | 0.00 | 31 | 1353.9 |
| 20260510100140 | 13 | 169 | 3.2 | 14.5 | 0.00 | 0.00 | 0.00 | 30 | 1353.7 |
| 20260510095635 | 13 | 130 | 6.4 | 20.9 | 0.00 | 0.00 | 0.00 | 30 | 1353.8 |
| 20260510095131 | 13 | 68 | 14.5 | 16.1 | 0.00 | 0.00 | 0.00 | 30 | 1354.3 |
| 20260510094629 | 13 | 135 | 4.8 | 11.3 | 0.00 | 0.00 | 0.00 | 30 | 1353.8 |
| 20260510094125 | 13 | 131 | 9.7 | 14.5 | 0.00 | 0.00 | 0.00 | 29 | 1353.4 |
| 20260510093621 | 13 | 186 | 0.0 | 16.1 | 0.00 | 0.00 | 0.00 | 29 | 1353.1 |
| 20260510093119 | 13 | 10 | 6.4 | 16.1 | 0.00 | 0.00 | 0.00 | 28 | 1352.8 |
| 20260510092615 | 13 | 206 | 0.0 | 9.7 | 0.00 | 0.00 | 0.00 | 28 | 1352.7 |
| 20260510092115 | 13 | 344 | 3.2 | 8.0 | 0.00 | 0.00 | 0.00 | 28 | 1352.6 |
| 20260510091612 | 13 | 191 | 8.0 | 19.3 | 0.00 | 0.00 | 0.00 | 27 | 1352.4 |
| 20260510091108 | 13 | 161 | 4.8 | 27.4 | 0.00 | 0.00 | 0.00 | 27 | 1352.3 |
| 20260510090605 | 13 | 108 | 9.7 | 11.3 | 0.00 | 0.00 | 0.00 | 26 | 1352.2 |
| 20260510090101 | 13 | 123 | 8.0 | 12.9 | 0.00 | 0.00 | 0.00 | 27 | 1352.2 |
| 20260510085556 | 13 | 128 | 8.0 | 12.9 | 0.00 | 0.00 | 0.00 | 27 | 1352.3 |
| 20260510085052 | 13 | 144 | 8.0 | 16.1 | 0.00 | 0.00 | 0.00 | 26 | 1351.7 |
| 20260510084548 | 12 | 144 | 8.0 | 8.0 | 0.00 | 0.00 | 0.00 | 27 | 1351.9 |
| 20260510084045 | 13 | 135 | 4.8 | 6.4 | 0.00 | 0.00 | 0.00 | 26 | 1352.1 |
| 20260510083542 | 13 | 341 | 6.4 | 9.7 | 0.00 | 0.00 | 0.00 | 26 | 1352.1 |
| 20260510083038 | 14 | 175 | 8.0 | 11.3 | 0.00 | 0.00 | 0.00 | 24 | 1351.8 |
| 20260510082535 | 14 | 90 | 4.8 | 14.5 | 0.00 | 0.00 | 0.00 | 26 | 1351.8 |
| 20260510082030 | 14 | 134 | 6.4 | 16.1 | 0.00 | 0.00 | 0.00 | 26 | 1351.7 |
| 20260510081526 | 14 | 128 | 12.9 | 17.7 | 0.00 | 0.00 | 0.00 | 27 | 1351.9 |
| 20260510081022 | 13 | 123 | 16.1 | 20.9 | 0.00 | 0.00 | 0.00 | 28 | 1351.8 |
| 20260510080521 | 13 | 114 | 9.7 | 35.4 | 0.00 | 0.00 | 0.00 | 28 | 1351.6 |
| 20260510080018 | 13 | 142 | 12.9 | 25.7 | 0.00 | 0.00 | 0.00 | 28 | 1351.7 |
| 20260510075515 | 11 | 117 | 4.8 | 6.4 | 0.00 | 0.00 | 0.00 | 27 | 1351.7 |
| 20260510075012 | 11 | 78 | 4.8 | 6.4 | 0.00 | 0.00 | 0.00 | 27 | 1351.6 |
| 20260510074510 | 11 | 123 | 1.6 | 4.8 | 0.00 | 0.00 | 0.00 | 28 | 1351.4 |
| 20260510074005 | 11 | 106 | 1.6 | 4.8 | 0.00 | 0.00 | 0.00 | 28 | 1351.7 |
| 20260510073501 | 11 | 99 | 4.8 | 6.4 | 0.00 | 0.00 | 0.00 | 28 | 1351.9 |
| 20260510072958 | 11 | 120 | 1.6 | 4.8 | 0.00 | 0.00 | 0.00 | 27 | 1351.6 |
| 20260510072454 | 11 | 121 | 3.2 | 6.4 | 0.00 | 0.00 | 0.00 | 27 | 1351.6 |
| 20260510071950 | 11 | 90 | 1.6 | 6.4 | 0.00 | 0.00 | 0.00 | 27 | 1351.8 |
| 20260510071446 | 11 | 94 | 3.2 | 4.8 | 0.00 | 0.00 | 0.00 | 26 | 1351.7 |
| 20260510070945 | 11 | 110 | 4.8 | 4.8 | 0.00 | 0.00 | 0.00 | 26 | 1351.6 |
| 20260510070442 | 11 | 103 | 3.2 | 4.8 | 0.00 | 0.00 | 0.00 | 26 | 1351.4 |
| 20260510065937 | 12 | 84 | 1.6 | 4.8 | 0.00 | 0.00 | 0.00 | 25 | 1351.6 |
| 20260510065435 | 12 | 76 | 4.8 | 6.4 | 0.00 | 0.00 | 0.00 | 25 | 1351.4 |
| 20260510064930 | 11 | 96 | 1.6 | 4.8 | 0.00 | 0.00 | 0.00 | 26 | 1351.4 |
| 20260510064428 | 11 | 69 | 0.0 | 3.2 | 0.00 | 0.00 | 0.00 | 25 | 1351.8 |
| 20260510063925 | 12 | 82 | 1.6 | 4.8 | 0.00 | 0.00 | 0.00 | 25 | 1351.7 |
| 20260510063421 | 12 | 90 | 0.0 | 9.7 | 0.00 | 0.00 | 0.00 | 24 | 1351.8 |
| 20260510062919 | 12 | 119 | 3.2 | 4.8 | 0.00 | 0.00 | 0.00 | 24 | 1351.6 |
| 20260510062414 | 13 | 110 | 3.2 | 4.8 | 0.00 | 0.00 | 0.00 | 24 | 1351.4 |
| 20260510061909 | 13 | 36 | 4.8 | 6.4 | 0.00 | 0.00 | 0.00 | 23 | 1351.8 |
| 20260510061406 | 13 | 135 | 3.2 | 6.4 | 0.00 | 0.00 | 0.00 | 22 | 1351.6 |
| 20260510060902 | 13 | 108 | 4.8 | 6.4 | 0.00 | 0.00 | 0.00 | 22 | 1351.6 |
| 20260510060359 | 13 | 73 | 4.8 | 4.8 | 0.00 | 0.00 | 0.00 | 22 | 1351.2 |
| 20260510055855 | 15 | 334 | 3.2 | 4.8 | 0.00 | 0.00 | 0.00 | 20 | 1351.3 |
| 20260510055355 | 15 | 167 | 9.7 | 17.7 | 0.00 | 0.00 | 0.00 | 19 | 1351.3 |
| 20260510054849 | 15 | 107 | 8.0 | 11.3 | 0.00 | 0.00 | 0.00 | 20 | 1350.9 |
| 20260510054344 | 12 | 121 | 3.2 | 8.0 | 0.00 | 0.00 | 0.00 | 24 | 1350.9 |
| 20260510053839 | 13 | 61 | 3.2 | 8.0 | 0.00 | 0.00 | 0.00 | 22 | 1351.2 |
| 20260510053335 | 12 | 90 | 4.8 | 4.8 | 0.00 | 0.00 | 0.00 | 23 | 1351.3 |
| 20260510052832 | 13 | 90 | 1.6 | 3.2 | 0.00 | 0.00 | 0.00 | 23 | 1351.1 |
| 20260510052327 | 14 | 94 | 4.8 | 6.4 | 0.00 | 0.00 | 0.00 | 21 | 1351.1 |
| 20260510051824 | 15 | 77 | 6.4 | 9.7 | 0.00 | 0.00 | 0.00 | 21 | 1351.1 |
| 20260510051321 | 15 | 79 | 3.2 | 6.4 | 0.00 | 0.00 | 0.00 | 21 | 1350.9 |
| 20260510050818 | 15 | 70 | 3.2 | 4.8 | 0.00 | 0.00 | 0.00 | 21 | 1351.1 |
| 20260510050314 | 15 | 74 | 4.8 | 6.4 | 0.00 | 0.00 | 0.00 | 20 | 1351.1 |
| 20260510045811 | 15 | 17 | 4.8 | 9.7 | 0.00 | 0.00 | 0.00 | 20 | 1351.4 |
| 20260510045307 | 15 | 52 | 4.8 | 9.7 | 0.00 | 0.00 | 0.00 | 20 | 1351.2 |
| 20260510044805 | 15 | 18 | 6.4 | 6.4 | 0.00 | 0.00 | 0.00 | 20 | 1351.4 |
| 20260510044302 | 15 | 40 | 3.2 | 4.8 | 0.00 | 0.00 | 0.00 | 19 | 1351.3 |
| 20260510043758 | 15 | 21 | 3.2 | 6.4 | 0.00 | 0.00 | 0.00 | 19 | 1351.4 |
| 20260510043249 | 15 | 8 | 6.4 | 8.0 | 0.00 | 0.00 | 0.00 | 18 | 1351.3 |
| 20260510042746 | 15 | 65 | 3.2 | 11.3 | 0.00 | 0.00 | 0.00 | 18 | 1351.4 |
| 20260510042241 | 15 | 65 | 4.8 | 4.8 | 0.00 | 0.00 | 0.00 | 18 | 1351.2 |
| 20260510041738 | 15 | 38 | 4.8 | 6.4 | 0.00 | 0.00 | 0.00 | 17 | 1351.6 |
| 20260510041230 | 15 | 47 | 4.8 | 4.8 | 0.00 | 0.00 | 0.00 | 18 | 1351.4 |
| 20260510040727 | 16 | 95 | 3.2 | 4.8 | 0.00 | 0.00 | 0.00 | 17 | 1351.1 |
| 20260510040224 | 16 | 350 | 4.8 | 6.4 | 0.00 | 0.00 | 0.00 | 16 | 1351.2 |
| 20260510035719 | 16 | 22 | 4.8 | 14.5 | 0.00 | 0.00 | 0.00 | 16 | 1351.1 |
| 20260510035215 | 16 | 337 | 1.6 | 9.7 | 0.00 | 0.00 | 0.00 | 15 | 1350.8 |
| 20260510034711 | 16 | 297 | 1.6 | 4.8 | 0.00 | 0.00 | 0.00 | 16 | 1350.8 |
| 20260510034210 | 16 | 132 | 0.0 | 3.2 | 0.00 | 0.00 | 0.00 | 16 | 1351.1 |
| 20260510033705 | 16 | 19 | 4.8 | 6.4 | 0.00 | 0.00 | 0.00 | 16 | 1350.7 |
| 20260510033203 | 16 | 21 | 3.2 | 6.4 | 0.00 | 0.00 | 0.00 | 16 | 1350.8 |
| 20260510032659 | 16 | 114 | 0.0 | 3.2 | 0.00 | 0.00 | 0.00 | 17 | 1350.8 |
| 20260510032155 | 16 | 145 | 1.6 | 3.2 | 0.00 | 0.00 | 0.00 | 17 | 1350.8 |
| 20260510031649 | 17 | 6 | 0.0 | 6.4 | 0.00 | 0.00 | 0.00 | 15 | 1350.6 |
| 20260510031146 | 17 | 73 | 3.2 | 3.2 | 0.00 | 0.00 | 0.00 | 15 | 1350.6 |
| 20260510030641 | 17 | 103 | 1.6 | 3.2 | 0.00 | 0.00 | 0.00 | 15 | 1350.3 |
| 20260510030139 | 18 | 309 | 4.8 | 8.0 | 0.00 | 0.00 | 0.00 | 15 | 1350.3 |
| 20260510025636 | 18 | 300 | 6.4 | 6.4 | 0.00 | 0.00 | 0.00 | 15 | 1350.2 |
| 20260510025133 | 18 | 6 | 1.6 | 8.0 | 0.00 | 0.00 | 0.00 | 15 | 1350.0 |
| 20260510024629 | 18 | 284 | 4.8 | 9.7 | 0.00 | 0.00 | 0.00 | 14 | 1350.0 |
| 20260510024126 | 18 | 15 | 3.2 | 6.4 | 0.00 | 0.00 | 0.00 | 15 | 1349.9 |
| 20260510023622 | 18 | 343 | 6.4 | 6.4 | 0.00 | 0.00 | 0.00 | 14 | 1349.8 |
| 20260510023120 | 18 | 242 | 6.4 | 12.9 | 0.00 | 0.00 | 0.00 | 14 | 1349.9 |
| 20260510022619 | 18 | 318 | 8.0 | 12.9 | 0.00 | 0.00 | 0.00 | 14 | 1349.9 |
| 20260510022114 | 19 | 357 | 9.7 | 14.5 | 0.00 | 0.00 | 0.00 | 14 | 1349.7 |
| 20260510021610 | 19 | 295 | 12.9 | 22.5 | 0.00 | 0.00 | 0.00 | 14 | 1349.7 |
| 20260510021108 | 20 | 353 | 27.4 | 29.0 | 0.00 | 0.00 | 0.00 | 13 | 1349.8 |
| 20260510020602 | 19 | 335 | 17.7 | 22.5 | 0.00 | 0.00 | 0.00 | 13 | 1349.4 |
| 20260510020058 | 20 | 69 | 1.6 | 8.0 | 0.00 | 0.00 | 0.00 | 13 | 1349.4 |
| 20260510015554 | 20 | 250 | 17.7 | 17.7 | 0.00 | 0.00 | 0.00 | 13 | 1349.5 |
| 20260510015050 | 20 | 220 | 4.8 | 14.5 | 0.00 | 0.00 | 0.00 | 13 | 1349.4 |
| 20260510014546 | 20 | 262 | 1.6 | 17.7 | 0.00 | 0.00 | 0.00 | 13 | 1349.4 |
| 20260510014044 | 20 | 215 | 6.4 | 14.5 | 0.00 | 0.00 | 0.00 | 13 | 1349.4 |
| 20260510013538 | 20 | 3 | 4.8 | 16.1 | 0.00 | 0.00 | 0.00 | 13 | 1349.4 |
| 20260510013034 | 20 | 348 | 3.2 | 6.4 | 0.00 | 0.00 | 0.00 | 13 | 1349.2 |
| 20260510012528 | 20 | 285 | 1.6 | 16.1 | 0.00 | 0.00 | 0.00 | 13 | 1349.3 |
| 20260510012025 | 20 | 272 | 11.3 | 24.1 | 0.00 | 0.00 | 0.00 | 13 | 1349.0 |
| 20260510011524 | 20 | 12 | 1.6 | 33.8 | 0.00 | 0.00 | 0.00 | 13 | 1349.0 |
| 20260510011020 | 20 | 247 | 11.3 | 32.2 | 0.00 | 0.00 | 0.00 | 13 | 1349.2 |
| 20260510010517 | 20 | 256 | 8.0 | 12.9 | 0.00 | 0.00 | 0.00 | 12 | 1349.2 |
| 20260510010014 | 20 | 264 | 4.8 | 16.1 | 0.00 | 0.00 | 0.00 | 12 | 1349.0 |
| 20260510005510 | 21 | 348 | 3.2 | 32.2 | 0.00 | 0.00 | 0.00 | 12 | 1349.0 |
| 20260510005008 | 21 | 256 | 8.0 | 38.6 | 0.00 | 0.00 | 0.00 | 12 | 1348.9 |
| 20260510004505 | 21 | 313 | 11.3 | 29.0 | 0.00 | 0.00 | 0.00 | 12 | 1349.0 |
| 20260510004003 | 21 | 288 | 24.1 | 25.7 | 0.00 | 0.00 | 0.00 | 12 | 1348.8 |
| 20260510003459 | 21 | 322 | 11.3 | 33.8 | 0.00 | 0.00 | 0.00 | 12 | 1349.0 |
| 20260510002955 | 21 | 291 | 16.1 | 20.9 | 0.00 | 0.00 | 0.00 | 12 | 1348.9 |
| 20260510002451 | 21 | 286 | 12.9 | 38.6 | 0.00 | 0.00 | 0.00 | 12 | 1348.8 |
| 20260510001947 | 22 | 277 | 6.4 | 38.6 | 0.00 | 0.00 | 0.00 | 12 | 1348.7 |
| 20260510001445 | 22 | 303 | 8.0 | 25.7 | 0.00 | 0.00 | 0.00 | 11 | 1348.9 |
| 20260510000943 | 22 | 318 | 12.9 | 32.2 | 0.00 | 0.00 | 0.00 | 12 | 1348.8 |
| 20260510000440 | 22 | 316 | 24.1 | 35.4 | 0.00 | 0.00 | 0.00 | 12 | 1348.8 |
| 20260509235935 | 22 | 237 | 8.0 | 25.7 | 0.00 | 0.00 | 0.00 | 11 | 1348.8 |
| 20260509235432 | 22 | 269 | 17.7 | 27.4 | 0.00 | 0.00 | 0.00 | 11 | 1348.8 |
| 20260509234928 | 22 | 257 | 6.4 | 25.7 | 0.00 | 0.00 | 0.00 | 11 | 1348.8 |
| 20260509234425 | 22 | 219 | 6.4 | 25.7 | 0.00 | 0.00 | 0.00 | 12 | 1348.7 |
| 20260509233923 | 21 | 245 | 9.7 | 24.1 | 0.00 | 0.00 | 0.00 | 12 | 1348.5 |
| 20260509233420 | 22 | 267 | 11.3 | 27.4 | 0.00 | 0.00 | 0.00 | 12 | 1348.9 |
| 20260509232916 | 22 | 283 | 8.0 | 32.2 | 0.00 | 0.00 | 0.00 | 12 | 1348.8 |
| 20260509232414 | 22 | 239 | 4.8 | 33.8 | 0.00 | 0.00 | 0.00 | 12 | 1348.8 |
| 20260509231909 | 24 | 296 | 11.3 | 38.6 | 0.00 | 0.00 | 0.00 | 11 | 1348.8 |
| 20260509231407 | 23 | 289 | 11.3 | 25.7 | 0.00 | 0.00 | 0.00 | 10 | 1348.9 |
| 20260509230905 | 23 | 270 | 12.9 | 29.0 | 0.00 | 0.00 | 0.00 | 11 | 1348.9 |
| 20260509230401 | 22 | 242 | 25.7 | 25.7 | 0.00 | 0.00 | 0.00 | 11 | 1348.8 |
| 20260509225857 | 23 | 261 | 12.9 | 32.2 | 0.00 | 0.00 | 0.00 | 11 | 1349.0 |
| 20260509225354 | 23 | 218 | 9.7 | 54.7 | 0.00 | 0.00 | 0.00 | 11 | 1349.0 |
| 20260509224849 | 23 | 268 | 17.7 | 30.6 | 0.00 | 0.00 | 0.00 | 12 | 1348.8 |
| 20260509224346 | 22 | 302 | 16.1 | 33.8 | 0.00 | 0.00 | 0.00 | 13 | 1348.8 |
| 20260509223843 | 21 | 286 | 4.8 | 25.7 | 0.00 | 0.00 | 0.00 | 13 | 1348.8 |
| 20260509223339 | 21 | 216 | 8.0 | 22.5 | 0.00 | 0.00 | 0.00 | 13 | 1349.0 |
| 20260509222837 | 21 | 21 | 11.3 | 37.0 | 0.00 | 0.00 | 0.00 | 14 | 1349.8 |
| 20260509222332 | 22 | 252 | 8.0 | 12.9 | 0.00 | 0.00 | 0.00 | 13 | 1349.3 |
| 20260509221827 | 22 | 255 | 11.3 | 16.1 | 0.00 | 0.00 | 0.00 | 13 | 1349.2 |
| 20260509221325 | 22 | 276 | 12.9 | 24.1 | 0.00 | 0.00 | 0.00 | 13 | 1349.4 |
| 20260509220825 | 23 | 208 | 20.9 | 40.2 | 0.00 | 0.00 | 0.00 | 12 | 1349.3 |
| 20260509220321 | 25 | 234 | 14.5 | 30.6 | 0.00 | 0.00 | 0.00 | 12 | 1348.9 |
| 20260509215817 | 25 | 272 | 14.5 | 32.2 | 0.00 | 0.00 | 0.00 | 11 | 1349.2 |
| 20260509215314 | 25 | 198 | 14.5 | 30.6 | 0.00 | 0.00 | 0.00 | 12 | 1349.0 |
| 20260509214811 | 24 | 222 | 16.1 | 54.7 | 0.00 | 0.00 | 0.00 | 12 | 1349.0 |
| 20260509214308 | 22 | 266 | 11.3 | 33.8 | 0.00 | 0.00 | 0.00 | 12 | 1349.7 |
| 20260509213805 | 23 | 265 | 6.4 | 29.0 | 0.00 | 0.00 | 0.00 | 12 | 1349.4 |
| 20260509213301 | 22 | 313 | 4.8 | 33.8 | 0.00 | 0.00 | 0.00 | 12 | 1349.3 |
| 20260509212758 | 23 | 348 | 12.9 | 27.4 | 0.00 | 0.00 | 0.00 | 12 | 1349.5 |
| 20260509212255 | 23 | 265 | 6.4 | 37.0 | 0.00 | 0.00 | 0.00 | 12 | 1349.7 |
| 20260509211751 | 23 | 263 | 25.7 | 25.7 | 0.00 | 0.00 | 0.00 | 12 | 1349.5 |
| 20260509211247 | 22 | 299 | 8.0 | 30.6 | 0.00 | 0.00 | 0.00 | 13 | 1349.8 |
| 20260509210744 | 23 | 226 | 11.3 | 29.0 | 0.00 | 0.00 | 0.00 | 12 | 1349.7 |
| 20260509210242 | 23 | 274 | 17.7 | 40.2 | 0.00 | 0.00 | 0.00 | 13 | 1350.2 |
| 20260509205741 | 22 | 88 | 9.7 | 35.4 | 0.00 | 0.00 | 0.00 | 13 | 1349.8 |
| 20260509205236 | 22 | 309 | 11.3 | 29.0 | 0.00 | 0.00 | 0.00 | 14 | 1350.0 |
| 20260509204732 | 23 | 284 | 8.0 | 12.9 | 0.00 | 0.00 | 0.00 | 13 | 1350.0 |